THEOS

Last updated on Mon Sep 21 2026 00:02:45 GMT+0000 (Coordinated Universal Time)

1 33396U 08049A 26263.57703199 .00000107 00000+0 69818-4 0 9998 2 33396 98.5474 317.7164 0001322 86.2491 273.8838 14.20143268931508
UTC large
Height (km)
Speed (km/s)
/
Latitude / Longitude
Inclination (degrees)
Orbital Period (minutes)
Azimuth
Elevation
Range (km)
Doppler Factor

Next 0 passes for location: London (51.5072 / 0.1276)

No passes found over London.
THEOS